Location: Mascot Post Office (historical)
(40.2645°N, 99.5462°W)
Time: 16:08:03
(UTC+00:00)

Cosmos 2237 Rocket - Pass Details

Date: 14 July 2020
Orbit: 834 x 850 km, 71.0° (Epoch: 05 August)

Event Time Altitude Azimuth Distance (km) Brightness Sun altitude
Rises 04:41:42 0° 238° (WSW) 3,403 5.3 -21.9°
Reaches altitude 10° 04:44:37 10° 252° (WSW) 2,472 4.8 -22.2°
Maximum altitude 04:49:10 24° 306° (NW) 1,683 4.4 -22.6°
Drops below altitude 10° 04:53:45 10° 359° (N) 2,484 5.5 -23.0°
Sets 04:56:42 0° 13° (NNE) 3,423 6.1 -23.3°
